Weather Roundup
Issued by NWS Springfield, MO

Home | Current Version | Previous Version | Text Only | Print | Product List | Glossary On
Versions: 1 2 3 4 5 6 7 8 9 10 11 12 13 14 15 16 17 18 19 20 21 22 23 24 25 26 27 28 29 30 31 32 33 34 35 36 37 38 39 40 41 42 43 44 45 46 47 48 49 50
000
NZUS99 KSGF 171057
HRRSGF

HOURLY WEATHER
NATIONAL WEATHER SERVICE SPRINGFIELD MO
600 AM CDT THU AUG 17 2017

......SGF CWA......

CITY           SKY/WX    TMP DP  RH WIND       PRES   REMARKS
SPRINGFIELD    CLOUDY    67  67 100 S7        29.93S
JOPLIN         CLOUDY    70  69  97 SW5       29.93S
WEST PLAINS    CLOUDY    68  67  96 S6        29.97S
ROLLA          PTCLDY    66  66 100 S9        29.93S

......SURROUNDING SGF CWA......

CITY           SKY/WX    TMP DP  RH WIND       PRES   REMARKS
CHANUTE        CLOUDY    69  68  96 W5        29.94R FOG
PARSONS        CLOUDY    67  66  97 CALM      29.94R
COFFEYVILLE    CLOUDY    69  68  96 SW7       29.93R FOG
EMPORIA        CLEAR     64  63  96 W3        29.95R
ROGERS AR      CLOUDY    68  66  94 SW6       29.96R
HARRISON AR    CLOUDY    68  68 100 E5        29.93F

......KANSAS AND MISSOURI......

CITY           SKY/WX    TMP DP  RH WIND       PRES   REMARKS
KANSAS CTY INT CLOUDY    65  63  93 W7        29.89R
SEDALIA        CLOUDY    69  69 100 SW7       29.90R
ST JOSEPH      CLEAR     64  63  96 NW5       29.89R FOG
ST LOUIS       CLOUDY    69  68  96 W8        29.89R
WICHITA        PTCLDY    66  63  90 NW6       29.97R
TOPEKA         CLEAR     66  66 100 W3        29.92R
OLATHE         CLOUDY    66  65  96 NW6       29.91R

......TENNESSEE......

CITY           SKY/WX    TMP DP  RH WIND       PRES   REMARKS
MEMPHIS        NOT AVBL
NASHVILLE      PTCLDY    76  73  91 SW7       30.02R

......ARKANSAS.......

CITY           SKY/WX    TMP DP  RH WIND       PRES   REMARKS
FAYETTEVILLE   CLOUDY    68  68 100 W3        29.95R
FT SMITH       CLOUDY    74  73  97 NW7       29.92R
LITTLE ROCK    CLOUDY    77  77 100 S9        29.94R

......OKLAHOMA.......

CITY           SKY/WX    TMP DP  RH WIND       PRES   REMARKS
TULSA          CLOUDY    71  70  96 W5        29.92R
PONCA CITY     CLOUDY    68  66  93 CALM      29.95R
MCALESTER      LGT RAIN  70  68  93 S7        29.95S
OKLAHOMA CITY  CLOUDY    70  68  93 CALM      29.96R

......IOWA............

CITY           SKY/WX    TMP DP  RH WIND       PRES   REMARKS
DES MOINES     NOT AVBL
QUAD CITIES    CLOUDY    72  68  87 SW7       29.74

......ILLINOIS........

CITY           SKY/WX    TMP DP  RH WIND       PRES   REMARKS
QUINCY         NOT AVBL
CHICAGO        CLOUDY    75  68  78 SW13      29.77S



USA.gov is the U.S. government's official web portal to all federal, state and local government web resources and services.